This is the latest recevied weather packets stored in our database for station/object IW1QQG-13. If no packets are shown the sender has not sent any weather packets the latest 1 day(s).
| Time | Temp. | Humidity | Pressure | Rain* | Wind** | Luminosity | Snow |
|---|---|---|---|---|---|---|---|
| 1778003754 | 13.89° C | 94% | 1012.9 hPa | 0 mm | 0 m/s | 21 W/m² | - |
| 1778003154 | 14.44° C | 92% | 1012.5 hPa | 0 mm | 0 m/s | 24 W/m² | - |
| 1778002554 | 14.44° C | 91% | 1012.9 hPa | 0 mm | 0 m/s | 28 W/m² | - |
| 1778001954 | 15° C | 88% | 1012.9 hPa | 0 mm | 0 m/s | 33 W/m² | - |
| 1778001354 | 15° C | 87% | 1012.9 hPa | 0 mm | 0 m/s | 36 W/m² | - |
| 1778000754 | 15° C | 86% | 1013.2 hPa | 0 mm | 0 m/s | 58 W/m² | - |
| 1777999554 | 15.56° C | 83% | 1013.2 hPa | 0 mm | 0 m/s | 78 W/m² | - |
| 1777998957 | 15.56° C | 83% | 1013.2 hPa | 0 mm | 0 m/s | 126 W/m² | - |
| 1777998354 | 15.56° C | 83% | 1013.2 hPa | 0 mm | 0.89 m/s, 196° | 86 W/m² | - |
| 1777997754 | 16.11° C | 82% | 1013.2 hPa | 0 mm | 0.45 m/s, 173° | 125 W/m² | - |
| 1777997154 | 16.11° C | 81% | 1013.2 hPa | 0 mm | 0.45 m/s, 165° | 107 W/m² | - |
| 1777996554 | 16.11° C | 82% | 1013.2 hPa | 0 mm | 0.45 m/s, 200° | 137 W/m² | - |
| 1777995954 | 16.11° C | 81% | 1013.5 hPa | 0 mm | 0.89 m/s, 192° | 132 W/m² | - |
| 1777995354 | 16.11° C | 81% | 1013.2 hPa | 0 mm | 0.45 m/s, 188° | 136 W/m² | - |
| 1777994754 | 16.67° C | 80% | 1013.2 hPa | 0 mm | 0.89 m/s, 167° | 168 W/m² | - |
| 1777994154 | 16.67° C | 81% | 1013.2 hPa | 0 mm | 0.45 m/s, 180° | - | - |
| 1777993554 | 16.11° C | 82% | 1013.2 hPa | 0 mm | 0.45 m/s, 123° | 188 W/m² | - |
| 1777992953 | 16.11° C | 82% | 1013.2 hPa | 0 mm | 0 m/s | 131 W/m² | - |
| 1777992354 | 16.11° C | 82% | 1013.2 hPa | 0 mm | 0 m/s | 100 W/m² | - |
| 1777991754 | 16.11° C | 82% | 1013.2 hPa | 0 mm | 0.45 m/s, 155° | 122 W/m² | - |
| 1777991154 | 16.11° C | 79% | 1013.2 hPa | 0 mm | 0.45 m/s, 171° | 130 W/m² | - |
| 1777990553 | 16.67° C | 79% | 1013.5 hPa | 0 mm | 0 m/s | 163 W/m² | - |
| 1777989953 | 16.67° C | 80% | 1013.5 hPa | 0 mm | 0 m/s | 256 W/m² | - |
| 1777989353 | 16.67° C | 79% | 1013.5 hPa | 0 mm | 0 m/s | 312 W/m² | - |
| 1777988754 | 16.67° C | 80% | 1013.5 hPa | 0 mm | 0 m/s | 282 W/m² | - |
* Rain latest hour (hover to see other rain measurements)
** Current wind speed in m/s (hover to see current wind gust speed)